STARLINK-32869, 62859

Orbit data source: Space-Track

STARLINK-32869, 62859 is a payload satellite owned by SpaceX/Seattle (US) in LEO that was launched on Sat, 01 Feb 2025 UTC via an FALCON 9 launch vehicle from the Air Force Western Test Range (AFWTR). Payload-class satellites include a variety of spacecraft equipped with specific instruments for various scientific and technological missions. These include communications satellites like Starlink; space stations such as the ISS; scientific satellites like the Hubble; Earth observation satellites from companies like Planet Labs, Umbra, and HawkEye 360; GPS; miniature CubeSats for education and research; and military/defense satellites.

Loading next visibility...
Identifier
62859, 2025-022F
Orbit
LEO
Country
Flag of USUS
Related business
Manufacturer
SpaceX/Seattle
Mission
Operational Commercial Communications
Bus & Motor
STARLINK V2M, Unknown motor
Mass
730 kg wet, ~700 kg dry
Launch date (UTC)
2025-02-01 (1 year ago)
Launch vehicle
FALCON 9
Launch site
Air Force Western Test Range (AFWTR)
Object type
Payload
Rocket body
Debris
Shape & HBR
Box + 2 Pan, 17.7 m
Radar Cross Section
33.884 m², Large (>1 m²)

Expand to show TLE details & history
Last TLE update: 11 hours ago

TLE from 11 hours ago
0 STARLINK-32869
1 62859U 25022F   26036.69563076  .00035333  00000-0  11981-2 0  9999
2 62859  53.1568 278.0718 0001189 106.6315 253.4816 15.30234708 57008
Epoch: 2026-02-05T16:41Z
TLE epoch observation values (Epoch: 2026-02-05T16:41:42.497Z)
Latitude
-0.00006°
Longitude
-108.19948°
Altitude
476.243 km
Speed
7.629 km/s
True Right ascension
18h 32m 17s
True Declination
0° 00' 00"
Sunlit
Object was in daylight at epoch
Visualization orbit readout
Latitude
Unknown
Longitude
Unknown
Altitude
Unknown
Speed
Unknown
Apparent Right ascension
Unknown
Apparent Declination
Unknown
Sunlit
N/A
Visualization observer readout
Local Sidereal Time
06:07:36
Azimuth
Unknown
Elevation
Unknown
Doppler factor
Unknown
Orbital elements
Apogee altitude
476.183 km
Perigee altitude
474.554 km
Semi-major axis
6,853.505 km
Eccentricity
0.00012
Inclination
53.1568°
RAAN
278.0718°
Arg. of periapsis
106.6315°
True anomaly
253.46854°
Mean anomaly
253.4816°
Eccentric anomaly
253.47507°
Mean motion
3.82538 °/min
Orbital period
94.11 mins
BSTAR
0.0011981
Loading maneuver chart data...
Computing Atmospheric mass density...
Loading historical data...
Loading historical data...
Loading historical data...
Loading historical data...
Loading historical data...
Loading historical data...
Loading historical data...

Documentation

Showing up to 5 results
|